User: anonymous   Login
Location: Caltech
(34.1382°N, 118.1253°W)
Time: 17:44:14
(UTC-07:00)
Language:

Cosmos 1025 Rocket - Orbit

View from above orbital plane
View from above orbital plane
View from above satellite
View from above satellite

Ground track
Ground track

The orbit data is extracted from the following two-line orbital elements,

1 10974U 78067B   17203.35093233 +.00000065 +00000-0 +44902-5 0  9995
2 10974 082.4838 135.9067 0016288 223.2625 136.7314 14.87237206091672
Epoch (UTC): 22 July 2017 08:25:20
Eccentricity: 0.0016288
inclination: 82.4838°
perigee height: 595 km
apogee height: 618 km
right ascension of ascending node: 135.9067°
argument of perigee: 223.2625°
revolutions per day: 14.87237206
mean anomaly at epoch: 136.7314°
orbit number at epoch: 9167

The dashed part of the orbit path shows where the satellite is in the earth's shadow,  

DLR